KBVSKAST

Guest
Details From KBVS - SKAGIT RGNL
To KAST - Astoria Rgnl
Flight Number -
Tags generated
Created
Modified
Stats Distance 151 nm / 280 km
Max Altitude 10,100 ft / 3,078 m
Waypoints 3
Social Downloads 0
Likes 0
Share VATSIM

Download

Looking for another format? Having issues loading an existing format? Contact us
Advertisement - Login to hide

Notes

Basic altitude profile: - Ascent Rate: 2500ft/min - Ascent Speed: 100kts - Cruise Altitude: 10500ft - Cruise Speed: 150kts - Descent Rate: 1500ft/min - Descent Speed: 150kts Options: - Use NATs: no - Use PACOTS: no - Use low airways: yes - Use high airways: no

Route

KBVS SOUPY KAST

ID Type Via Altitude Latitude Longitude Leg Dist Tot Dist Heading (true) Name
O KBVS APT - 0 ft / 0 m 48.46986˚ -122.42046˚ - 0 nm - SKAGIT RGNL
SOUPY FIX - 10,100 ft / 3,078 m 46.96308˚ -123.41975˚ 99 nm 99 nm 204° / 204° -
O KAST APT - 0 ft / 0 m 46.15789˚ -123.87872˚ 51 nm 151 nm 202° / 201° Astoria Rgnl

Altitude Profile

Advertisement - Login to hide

KBVS

Details ICAO KBVS
Name SKAGIT RGNL
Region United States
Timezone America/Los_Angeles (UTC-7.0)
Stats Elevation 144 ft / 44 m (AMSL)
Location 48.469859° -122.420457°
Runways 2
Magnetic Variation 15.888° E

METAR

KBVS 201815Z AUTO 19006KT 10SM OVC023 14/10 A3006 RMK A01

Decode

TAF

Not found

Departure Runways

ID Width Length Bearing (true) Bearing (mag) Surface Threshold Offset Overrun Length
04 59 ft / 18 m 2,995 ft / 913 m 56.37° 40.48° Asphalt 0 ft / 0 m 39 ft / 12 m
10 98 ft / 30 m 5,468 ft / 1,667 m 126.51° 110.62° Asphalt 0 ft / 0 m 0 ft / 0 m
22 59 ft / 18 m 2,995 ft / 913 m 236.38° 220.49° Asphalt 0 ft / 0 m 39 ft / 12 m
28 98 ft / 30 m 5,468 ft / 1,667 m 306.53° 290.64° Asphalt 0 ft / 0 m 10 ft / 3 m

KAST

Details ICAO KAST (AST)
Name Astoria Rgnl
Region United States
Timezone America/Los_Angeles (UTC-7.0)
Stats Elevation 15 ft / 5 m (AMSL)
Location 46.157894° -123.878724°
Runways 2
Magnetic Variation 15.578° E

METAR

KAST 201755Z AUTO 34009KT 6SM HZ OVC039 14/11 A3008 RMK AO2 SLP185 60000 T01440106 10144 20106 50009

Decode

TAF

TAF KAST 201726Z 2018/2118 31008KT P6SM OVC035 FM202300 30010KT P6SM BKN030 FM210500 32005KT P6SM OVC019 FM211100 30003KT P6SM OVC009 FM211400 VRB03KT P6SM OVC015

Decode

Destination Runways

ID Width Length Bearing (true) Bearing (mag) Surface Threshold Offset Overrun Length
08 98 ft / 30 m 5,779 ft / 1,762 m 95.49° 79.91° Asphalt 302 ft / 92 m 0 ft / 0 m
13 98 ft / 30 m 4,997 ft / 1,523 m 153.70° 138.12° Asphalt 328 ft / 100 m 0 ft / 0 m
26 98 ft / 30 m 5,779 ft / 1,762 m 275.51° 259.93° Asphalt 705 ft / 215 m 0 ft / 0 m
31 98 ft / 30 m 4,997 ft / 1,523 m 333.70° 318.12° Asphalt 203 ft / 62 m 0 ft / 0 m

Approach Navaids

Runway Type Ident Frequency Range Bearing (true) Bearing (mag) Slope Elevation
26 Localiser IAST 109.50 MHz 18 nm / 33 km 275.50° 259.92° - 15 ft / 5 m (AMSL)
26 Glidescope IAST 109.50 MHz 10 nm / 19 km 275.50° 259.92° 3.00° 15 ft / 5 m (AMSL)